SCP
-0 -0 -0 0 0 -0 -0 0 0 -0 -0 -0 -0 -0 -0 -0 -0 -0 -0 -0 -0 -0 -0 -0 -0 -0 -0 -0 -0 -0 -0 -0 -0 -0 -0 -0 -0 -0 -0 -0 0 0 0
0 0 -0 -0 -0 -0 -0 0 0 -0 -0 -0 -0 -0 -0 -0 -0 -0 -0 -0 -0 -0 -0 -0 -0 -0 -0 -0 -0 -0 -0 -0 -0 0 0 -0 -0 -0 -0 -0 0 0 0
-0 -0 -0 0 -0 -0 -0 -0 0 0 -0 -0 -0 -0 -0 -0 -0 -0 -0 -0 -0 -0 -0 -0 -0 -0 -0 -0 -0 -0 -0 -0 -0 -0 -0 0 0 -0 0 0 0 0 0
-0 -0 -0 0 0 0 0 0 0 0 -0 -0 -0 -0 -0 -0 -0 -0 -0 -0 -0 -0 -0 -0 -0 -0 -0 -0 -0 -0 -0 -0 -0 -0 0 0 0 -0 -0 0 0 0 0
-0 -0 -0 0 0 0 0 0 0 0 -0 -0 -0 -0 -0 -0 -0 -0 -0 -0 -0 -0 -0 -0 -0 -0 -0 -0 -0 -0 -0 -0 -0 0 0 0 0 0 0 0 0 0 0
-0 -0 0 -0 0 0 0 0 -0 -0 -0 -0 -0 -0 -0 -0 -0 -0 -0 -0 -0 -0 -0 -0 -0 -0 -0 -0 -0 -0 -0 -0 -0 0 0 0 0 0 0 0 0 0 0
0 -0 0 -0 -0 0 0 0 -0 -0 -0 -0 -0 -0 -0 -0 -0 -0 -0 -0 -0 -0 -0 -0 -0 -0 -0 -0 -0 -0 -0 -0 0 0 0 0 0 0 0 0 0 0 0
-0 0 -0 0 -0 0 0 0 0 -0 -0 -0 -0 -0 -0 -0 -0 -0 -0 -0 -0 -0 -0 -0 -0 -0 -0 -0 -0 -0 -0 -0 0 0 0 0 0 0 0 0 0 0 0
0 0 0 0 -0 -0 -0 0 0 0 0 0 -0 -0 -0 -0 -0 -0 -0 -0 -0 -0 -0 -0 -0 -0 -0 -0 -0 -0 -0 -0 0 0 0 0 0 0 0 0 0 0 0
-0 0 0 0 0 0 -0 0 0 0 0 0 0 0 -0 -0 -0 -0 -0 -0 -0 -0 -0 -0 -0 -0 -0 -0 -0 -0 -0 -0 0 0 0 0 0 0 0 0 0 0 0
0 0 0 0 0 0 0 -0 0 0 -0 0 0 0 0 0 -0 -0 -0 -0 -0 -0 -0 -0 -0 -0 -0 -0 -0 -0 0 0 0 0 0 0 0 0 0 0 0 0 0
-0 0 0 0 0 0 0 0 0 0 0 0 0 0 0 0 0 -0 -0 -0 -0 -0 -0 0 0 -0 0 0 0 0 0 0 0 0 0 0 0 0 0 0 0 0 0
-0 0 0 0 0 0 0 0 0 0 0 0 -0 0 0 0 0 0 0 0 -0 0 0 0 -0 0 0 0 0 0 0 0 0 0 0 0 0 0 0 0 0 0 0
-0 -0 -0 -0 0 -0 0 0 0 0 -0 -0 0 0 0 0 -0 0 0 0 0 0 0 0 0 0 0 0 0 0 0 0 0 0 0 0 0 0 0 0 0 0 0
-0 -0 -0 -0 -0 0 0 0 0 0 -0 -0 0 -0 -0 0 0 0 0 0 0 0 0 0 0 0 0 0 0 0 0 0 0 0 0 0 0 0 0 0 0 0 0
-0 -0 -0 -0 -0 -0 0 0 0 0 -0 -0 0 0 0 0 0 0 0 0 0 0 0 0 0 0 0 0 0 0 0 0 0 0 0 0 0 0 0 0 0 0 0
-0 0 -0 -0 -0 -0 -0 0 0 0 0 0 0 0 0 0 0 0 0 0 0 0 0 0 0 0 0 0 0 0 0 0 0 0 0 0 0 0 0 0 0 0 0
0 -0 -0 0 0 0 0 0 0 0 0 0 0 0 0 0 0 0 0 0 0 0 0 0 0 0 0 0 0 0 0 0 0 0 0 0 0 0 0 0 0 0 0
0 0 0 0 0 0 0 0 0 0 0 0 0 0 0 0 0 0 0 0 0 0 0 0 0 0 0 0 0 0 0 0 0 0 0 0 0 0 0 0 0 0 0
0 0 0 0 0 0 0 0 0 0 0 0 0 0 0 0 0 0 0 0 0 0 0 0 0 0 0 0 0 0 0 0 0 0 0 0 0 0 0 0 0 0 0
0 0 0 0 0 0 0 0 0 0 0 0 0 0 0 0 0 0 0 0 0 0 0 0 0 0 0 0 0 0 0 0 0 0 0 0 0 0 0 0 0 0 0
0 0 0 0 0 0 0 0 0 0 0 0 0 0 0 0 0 0 0 0 0 0 0 0 0 0 0 0 0 0 0 0 0 0 0 0 0 0 0 0 0 0 0
-0 -0 0 0 0 0 0 0 0 0 0 0 0 0 0 0 0 0 0 0 0 0 0 0 0 0 0 0 0 0 0 0 0 0 0 0 0 0 0 0 0 0 0
0 0 0 0 0 0 0 0 0 0 0 0 0 0 0 0 0 0 0 0 0 0 0 0 0 0 0 0 0 0 0 0 0 0 0 0 0 0 0 0 0 0 0
0 0 0 0 0 0 0 0 0 0 0 0 0 0 0 0 0 0 0 0 0 0 0 0 0 0 0 0 0 0 0 0 0 0 0 0 0 0 0 0 0 0 0
0 0 0 0 0 0 0 0 0 0 0 0 0 0 0 0 0 0 0 0 0 0 0 0 0 0 0 0 0 0 0 0 0 0 0 0 0 0 0 0 0 0 0
Wind_Speed_500mb
41 34 27 23 22 22 25 25 24 25 26 26 22 24 22 18 13 10 11 15 16 22 27 32 36 33 38 36 36 37 33 32 33 40 43 40 38 40 40 36 30 34 40
41 28 18 16 17 18 19 21 20 22 23 23 19 17 14 13 11 14 17 18 24 27 31 33 34 36 35 33 34 32 34 31 31 34 34 39 37 35 34 32 34 40 49
31 22 17 13 14 17 23 23 23 21 17 14 13 12 16 18 19 21 21 25 30 30 31 33 33 34 31 31 30 34 37 34 32 32 37 39 38 37 37 39 41 42 43
24 21 15 13 17 19 21 21 16 12 10 10 14 16 15 19 22 24 27 30 32 31 31 32 31 32 31 29 28 31 32 33 34 36 38 40 44 43 42 42 42 42 40
31 21 15 15 17 22 24 21 20 18 17 14 22 25 28 21 18 21 27 31 31 30 31 31 30 28 28 31 31 31 32 33 35 37 42 44 44 42 41 42 42 41 41
29 23 19 18 19 24 27 25 20 27 26 30 32 35 32 26 18 18 26 28 29 30 29 29 30 28 26 30 32 31 31 33 34 38 40 41 42 40 38 38 38 37 37
31 22 19 20 21 20 22 25 27 29 33 34 32 31 29 31 20 20 26 26 26 28 29 28 27 27 24 25 29 33 32 32 32 34 36 37 37 35 35 35 35 34 34
24 25 22 23 22 19 17 22 32 32 36 37 35 31 24 27 25 19 24 24 24 26 26 26 27 28 24 24 29 31 30 29 28 29 31 32 31 30 31 30 31 30 30
21 24 24 24 24 21 18 16 20 27 34 35 34 30 27 26 28 21 25 22 22 23 25 27 28 27 23 22 26 27 28 25 24 26 26 28 28 27 27 26 26 26 25
24 24 25 25 24 23 20 13 12 12 14 19 19 18 19 21 25 23 23 20 20 22 24 27 29 28 25 20 21 23 23 22 21 22 22 23 22 21 21 22 23 22 21
29 26 27 27 25 24 24 20 15 17 16 19 20 18 16 18 22 23 22 20 18 20 22 25 26 24 21 18 20 19 18 17 17 17 18 19 19 17 17 18 18 17 17
37 32 32 30 27 27 27 26 23 20 22 26 25 23 21 20 20 21 22 21 19 19 20 22 21 20 18 17 15 16 15 13 12 12 14 14 14 15 15 15 15 11 13
36 33 36 34 32 28 28 29 30 29 27 27 24 21 20 18 19 20 19 20 19 17 16 16 16 16 14 15 14 12 12 9 6 6 8 9 10 12 12 12 13 16 17
42 37 39 34 34 33 31 28 26 27 26 27 24 21 20 19 18 19 19 19 18 16 15 14 14 15 15 16 16 13 10 9 6 2 2 4 8 10 8 8 11 10 12
46 40 38 36 36 37 35 36 35 31 28 27 26 22 22 21 20 20 20 19 18 18 16 15 14 14 14 15 17 15 12 8 7 5 5 5 6 6 5 5 6 11 8
51 48 42 40 37 40 39 36 36 35 32 31 29 23 22 20 22 21 21 21 21 20 20 18 16 16 17 18 18 17 14 13 11 11 9 8 8 7 8 5 4 5 4
57 53 53 47 43 41 41 40 40 38 37 35 31 29 27 25 25 24 23 23 22 21 21 21 21 20 19 19 19 18 16 14 14 16 14 13 13 11 12 11 6 4 9
63 61 59 56 54 50 45 44 45 45 41 38 36 34 33 31 30 28 26 24 24 25 24 24 24 23 23 22 22 20 19 18 19 19 18 18 16 15 17 16 15 16 17
65 64 64 60 60 57 51 50 49 47 47 44 42 42 40 39 37 36 32 29 30 30 29 28 28 28 28 28 28 27 24 22 23 24 21 21 20 18 19 21 18 18 14
60 61 63 62 59 63 60 55 57 57 54 51 51 49 46 46 45 44 41 38 38 37 35 35 34 34 34 31 30 27 25 26 28 29 27 25 24 21 21 24 20 17 13
59 61 61 64 63 65 69 69 66 68 66 64 60 56 53 53 53 51 49 47 47 46 41 39 37 39 39 37 34 31 30 30 29 33 40 31 27 24 25 17 18 17 14
62 63 63 64 65 66 71 73 72 67 70 70 69 67 62 60 58 58 56 55 55 53 48 46 46 42 37 41 41 35 30 31 34 38 34 32 30 28 26 24 25 19 15
71 68 67 67 67 66 67 72 78 77 76 74 77 76 73 69 65 64 62 60 60 60 57 52 52 50 46 40 47 38 19 22 30 37 44 50 41 34 23 25 26 22 20
73 68 67 67 67 67 68 72 78 83 86 82 80 77 76 75 72 70 70 66 64 64 65 59 54 54 52 50 54 54 51 21 23 20 46 41 45 34 30 25 31 27 24
76 74 69 68 68 68 71 75 76 79 84 83 84 81 79 79 78 76 76 73 71 69 68 64 59 60 57 50 56 60 59 61 42 33 43 52 52 47 42 33 37 34 30
67 81 80 79 74 70 70 75 81 81 82 85 84 82 82 79 79 81 81 80 77 76 74 71 66 64 65 63 60 63 63 66 64 59 55 59 67 63 54 44 38 40 35
Wind_Direction_500mb
152 133 124 130 120 111 118 114 113 117 114 110 109 110 105 100 97 98 92 86 78 86 87 93 94 89 83 79 77 81 87 84 91 91 91 85 83 84 82 80 83 79 67
159 145 134 128 130 128 126 116 122 126 120 113 112 103 97 89 93 95 111 97 94 91 93 93 92 88 88 87 89 80 77 88 92 94 97 89 83 91 93 86 79 70 75
169 171 156 137 137 140 137 132 129 126 124 125 116 105 92 84 86 107 102 94 97 93 93 92 97 93 91 92 84 82 76 87 94 83 85 87 84 83 80 74 73 74 77
175 164 160 160 157 154 148 152 158 152 148 145 129 114 100 105 97 95 100 101 96 93 94 103 101 103 99 92 84 78 80 83 88 85 86 84 81 79 78 75 73 72 74
178 167 173 162 158 156 156 156 162 142 137 142 129 105 103 104 92 94 93 97 95 95 99 106 109 103 97 97 90 78 83 88 89 90 86 83 82 79 77 75 74 73 72
173 171 175 161 155 154 157 163 148 145 144 134 130 130 123 115 114 102 98 98 95 97 107 111 110 108 101 92 92 88 88 89 90 88 85 83 82 81 79 77 74 73 71
172 167 172 157 154 157 176 173 152 140 138 130 128 133 152 125 133 119 109 103 100 101 108 114 119 119 111 98 94 90 92 92 88 88 87 85 83 80 77 75 72 69 68
175 169 176 163 157 156 159 150 143 140 142 141 140 144 151 143 131 128 114 112 108 107 113 120 124 125 120 104 103 99 97 93 91 88 86 85 82 79 75 72 69 67 65
181 176 177 170 156 151 152 154 153 153 152 153 154 152 140 134 144 135 128 121 113 111 116 120 125 128 121 107 106 108 104 99 91 86 85 83 78 73 69 65 61 58 55
182 186 184 174 168 157 147 148 143 141 159 152 149 148 144 141 152 127 130 124 117 118 123 124 128 129 126 120 112 108 104 99 93 86 79 77 73 68 63 58 55 49 42
188 197 191 182 177 174 163 160 162 155 155 146 147 148 148 142 133 142 139 136 134 134 135 139 140 141 140 137 127 121 111 106 93 84 77 69 63 54 51 52 46 38 40
196 192 199 191 187 183 179 173 172 174 170 164 165 158 153 149 144 151 154 152 150 148 148 149 150 153 150 149 146 136 131 115 98 86 75 63 48 39 30 31 49 34 17
201 199 195 196 195 197 194 190 184 180 182 178 173 167 165 164 164 164 168 166 165 162 160 161 169 172 171 168 171 164 146 135 111 81 63 47 27 20 19 24 39 43 45
209 204 202 199 205 197 202 202 200 193 188 189 186 186 185 180 175 179 180 183 182 182 180 177 178 181 185 183 188 191 176 164 166 155 2 8 6 4 15 42 34 53 56
215 209 211 206 208 202 200 202 201 201 200 202 203 199 198 190 190 193 193 196 201 204 202 197 195 194 199 199 200 204 208 204 206 248 285 329 335 344 348 42 41 38 52
218 219 218 217 214 209 207 207 209 207 205 209 214 213 212 206 206 207 207 209 212 213 213 211 211 209 211 210 210 211 214 223 231 249 273 299 297 298 303 309 4 58 358
222 226 223 222 225 224 218 213 214 216 213 216 219 223 223 222 221 221 220 220 219 222 223 222 223 223 223 221 219 223 226 235 250 255 273 283 283 286 288 304 299 153 204
218 224 226 223 224 230 227 224 219 220 222 223 221 224 228 228 230 233 232 233 232 233 232 232 232 234 233 232 229 231 233 235 238 247 261 270 268 273 284 289 290 291 290
222 220 224 225 228 230 234 230 230 229 231 230 229 228 230 233 235 239 240 240 240 242 242 241 241 240 238 238 236 235 236 241 245 255 258 264 257 266 279 289 295 295 294
224 222 223 229 232 231 233 235 232 234 235 234 234 234 233 236 239 241 243 240 242 244 244 244 245 246 245 244 241 239 236 243 247 252 241 254 255 262 275 286 293 295 284
223 225 224 229 234 233 232 231 231 233 237 237 239 239 238 240 241 243 243 245 245 248 250 251 249 249 250 245 241 238 239 245 249 243 244 244 247 257 284 292 296 283 274
229 230 230 232 234 237 238 238 237 237 239 242 244 244 244 243 243 245 246 247 247 249 247 245 245 253 251 246 235 240 249 239 245 240 236 255 259 266 278 294 297 287 278
232 233 235 236 237 236 240 239 239 240 242 242 241 243 244 246 246 247 249 249 250 251 251 248 249 251 247 248 239 237 230 236 232 235 229 225 234 251 265 292 293 285 274
235 239 242 243 242 242 241 241 241 242 243 245 247 249 248 247 249 250 251 251 252 252 252 250 250 252 250 251 240 237 238 248 219 216 219 228 247 223 246 271 283 277 269
235 238 243 246 246 245 246 246 247 248 251 251 251 253 253 253 252 255 254 253 252 253 253 251 248 247 245 242 235 235 237 238 234 228 215 227 227 235 236 240 263 268 264
240 241 241 243 249 249 250 250 253 255 254 254 254 255 255 254 254 255 256 255 255 253 252 251 248 246 245 241 239 239 237 239 240 233 238 231 227 227 228 242 251 260 261
Wind_Speed_850mb
41 34 27 23 22 22 25 25 24 25 26 26 22 24 22 18 13 10 11 15 16 22 27 32 36 33 38 36 36 37 33 32 33 40 43 40 38 40 40 36 30 34 40
41 28 18 16 17 18 19 21 20 22 23 23 19 17 14 13 11 14 17 18 24 27 31 33 34 36 35 33 34 32 34 31 31 34 34 39 37 35 34 32 34 40 49
31 22 17 13 14 17 23 23 23 21 17 14 13 12 16 18 19 21 21 25 30 30 31 33 33 34 31 31 30 34 37 34 32 32 37 39 38 37 37 39 41 42 43
24 21 15 13 17 19 21 21 16 12 10 10 14 16 15 19 22 24 27 30 32 31 31 32 31 32 31 29 28 31 32 33 34 36 38 40 44 43 42 42 42 42 40
31 21 15 15 17 22 24 21 20 18 17 14 22 25 28 21 18 21 27 31 31 30 31 31 30 28 28 31 31 31 32 33 35 37 42 44 44 42 41 42 42 41 41
29 23 19 18 19 24 27 25 20 27 26 30 32 35 32 26 18 18 26 28 29 30 29 29 30 28 26 30 32 31 31 33 34 38 40 41 42 40 38 38 38 37 37
31 22 19 20 21 20 22 25 27 29 33 34 32 31 29 31 20 20 26 26 26 28 29 28 27 27 24 25 29 33 32 32 32 34 36 37 37 35 35 35 35 34 34
24 25 22 23 22 19 17 22 32 32 36 37 35 31 24 27 25 19 24 24 24 26 26 26 27 28 24 24 29 31 30 29 28 29 31 32 31 30 31 30 31 30 30
21 24 24 24 24 21 18 16 20 27 34 35 34 30 27 26 28 21 25 22 22 23 25 27 28 27 23 22 26 27 28 25 24 26 26 28 28 27 27 26 26 26 25
24 24 25 25 24 23 20 13 12 12 14 19 19 18 19 21 25 23 23 20 20 22 24 27 29 28 25 20 21 23 23 22 21 22 22 23 22 21 21 22 23 22 21
29 26 27 27 25 24 24 20 15 17 16 19 20 18 16 18 22 23 22 20 18 20 22 25 26 24 21 18 20 19 18 17 17 17 18 19 19 17 17 18 18 17 17
37 32 32 30 27 27 27 26 23 20 22 26 25 23 21 20 20 21 22 21 19 19 20 22 21 20 18 17 15 16 15 13 12 12 14 14 14 15 15 15 15 11 13
36 33 36 34 32 28 28 29 30 29 27 27 24 21 20 18 19 20 19 20 19 17 16 16 16 16 14 15 14 12 12 9 6 6 8 9 10 12 12 12 13 16 17
42 37 39 34 34 33 31 28 26 27 26 27 24 21 20 19 18 19 19 19 18 16 15 14 14 15 15 16 16 13 10 9 6 2 2 4 8 10 8 8 11 10 12
46 40 38 36 36 37 35 36 35 31 28 27 26 22 22 21 20 20 20 19 18 18 16 15 14 14 14 15 17 15 12 8 7 5 5 5 6 6 5 5 6 11 8
51 48 42 40 37 40 39 36 36 35 32 31 29 23 22 20 22 21 21 21 21 20 20 18 16 16 17 18 18 17 14 13 11 11 9 8 8 7 8 5 4 5 4
57 53 53 47 43 41 41 40 40 38 37 35 31 29 27 25 25 24 23 23 22 21 21 21 21 20 19 19 19 18 16 14 14 16 14 13 13 11 12 11 6 4 9
63 61 59 56 54 50 45 44 45 45 41 38 36 34 33 31 30 28 26 24 24 25 24 24 24 23 23 22 22 20 19 18 19 19 18 18 16 15 17 16 15 16 17
65 64 64 60 60 57 51 50 49 47 47 44 42 42 40 39 37 36 32 29 30 30 29 28 28 28 28 28 28 27 24 22 23 24 21 21 20 18 19 21 18 18 14
60 61 63 62 59 63 60 55 57 57 54 51 51 49 46 46 45 44 41 38 38 37 35 35 34 34 34 31 30 27 25 26 28 29 27 25 24 21 21 24 20 17 13
59 61 61 64 63 65 69 69 66 68 66 64 60 56 53 53 53 51 49 47 47 46 41 39 37 39 39 37 34 31 30 30 29 33 40 31 27 24 25 17 18 17 14
62 63 63 64 65 66 71 73 72 67 70 70 69 67 62 60 58 58 56 55 55 53 48 46 46 42 37 41 41 35 30 31 34 38 34 32 30 28 26 24 25 19 15
71 68 67 67 67 66 67 72 78 77 76 74 77 76 73 69 65 64 62 60 60 60 57 52 52 50 46 40 47 38 19 22 30 37 44 50 41 34 23 25 26 22 20
73 68 67 67 67 67 68 72 78 83 86 82 80 77 76 75 72 70 70 66 64 64 65 59 54 54 52 50 54 54 51 21 23 20 46 41 45 34 30 25 31 27 24
76 74 69 68 68 68 71 75 76 79 84 83 84 81 79 79 78 76 76 73 71 69 68 64 59 60 57 50 56 60 59 61 42 33 43 52 52 47 42 33 37 34 30
67 81 80 79 74 70 70 75 81 81 82 85 84 82 82 79 79 81 81 80 77 76 74 71 66 64 65 63 60 63 63 66 64 59 55 59 67 63 54 44 38 40 35
Wind_Direction_850mb
152 133 124 130 120 111 118 114 113 117 114 110 109 110 105 100 97 98 92 86 78 86 87 93 94 89 83 79 77 81 87 84 91 91 91 85 83 84 82 80 83 79 67
159 145 134 128 130 128 126 116 122 126 120 113 112 103 97 89 93 95 111 97 94 91 93 93 92 88 88 87 89 80 77 88 92 94 97 89 83 91 93 86 79 70 75
169 171 156 137 137 140 137 132 129 126 124 125 116 105 92 84 86 107 102 94 97 93 93 92 97 93 91 92 84 82 76 87 94 83 85 87 84 83 80 74 73 74 77
175 164 160 160 157 154 148 152 158 152 148 145 129 114 100 105 97 95 100 101 96 93 94 103 101 103 99 92 84 78 80 83 88 85 86 84 81 79 78 75 73 72 74
178 167 173 162 158 156 156 156 162 142 137 142 129 105 103 104 92 94 93 97 95 95 99 106 109 103 97 97 90 78 83 88 89 90 86 83 82 79 77 75 74 73 72
173 171 175 161 155 154 157 163 148 145 144 134 130 130 123 115 114 102 98 98 95 97 107 111 110 108 101 92 92 88 88 89 90 88 85 83 82 81 79 77 74 73 71
172 167 172 157 154 157 176 173 152 140 138 130 128 133 152 125 133 119 109 103 100 101 108 114 119 119 111 98 94 90 92 92 88 88 87 85 83 80 77 75 72 69 68
175 169 176 163 157 156 159 150 143 140 142 141 140 144 151 143 131 128 114 112 108 107 113 120 124 125 120 104 103 99 97 93 91 88 86 85 82 79 75 72 69 67 65
181 176 177 170 156 151 152 154 153 153 152 153 154 152 140 134 144 135 128 121 113 111 116 120 125 128 121 107 106 108 104 99 91 86 85 83 78 73 69 65 61 58 55
182 186 184 174 168 157 147 148 143 141 159 152 149 148 144 141 152 127 130 124 117 118 123 124 128 129 126 120 112 108 104 99 93 86 79 77 73 68 63 58 55 49 42
188 197 191 182 177 174 163 160 162 155 155 146 147 148 148 142 133 142 139 136 134 134 135 139 140 141 140 137 127 121 111 106 93 84 77 69 63 54 51 52 46 38 40
196 192 199 191 187 183 179 173 172 174 170 164 165 158 153 149 144 151 154 152 150 148 148 149 150 153 150 149 146 136 131 115 98 86 75 63 48 39 30 31 49 34 17
201 199 195 196 195 197 194 190 184 180 182 178 173 167 165 164 164 164 168 166 165 162 160 161 169 172 171 168 171 164 146 135 111 81 63 47 27 20 19 24 39 43 45
209 204 202 199 205 197 202 202 200 193 188 189 186 186 185 180 175 179 180 183 182 182 180 177 178 181 185 183 188 191 176 164 166 155 2 8 6 4 15 42 34 53 56
215 209 211 206 208 202 200 202 201 201 200 202 203 199 198 190 190 193 193 196 201 204 202 197 195 194 199 199 200 204 208 204 206 248 285 329 335 344 348 42 41 38 52
218 219 218 217 214 209 207 207 209 207 205 209 214 213 212 206 206 207 207 209 212 213 213 211 211 209 211 210 210 211 214 223 231 249 273 299 297 298 303 309 4 58 358
222 226 223 222 225 224 218 213 214 216 213 216 219 223 223 222 221 221 220 220 219 222 223 222 223 223 223 221 219 223 226 235 250 255 273 283 283 286 288 304 299 153 204
218 224 226 223 224 230 227 224 219 220 222 223 221 224 228 228 230 233 232 233 232 233 232 232 232 234 233 232 229 231 233 235 238 247 261 270 268 273 284 289 290 291 290
222 220 224 225 228 230 234 230 230 229 231 230 229 228 230 233 235 239 240 240 240 242 242 241 241 240 238 238 236 235 236 241 245 255 258 264 257 266 279 289 295 295 294
224 222 223 229 232 231 233 235 232 234 235 234 234 234 233 236 239 241 243 240 242 244 244 244 245 246 245 244 241 239 236 243 247 252 241 254 255 262 275 286 293 295 284
223 225 224 229 234 233 232 231 231 233 237 237 239 239 238 240 241 243 243 245 245 248 250 251 249 249 250 245 241 238 239 245 249 243 244 244 247 257 284 292 296 283 274
229 230 230 232 234 237 238 238 237 237 239 242 244 244 244 243 243 245 246 247 247 249 247 245 245 253 251 246 235 240 249 239 245 240 236 255 259 266 278 294 297 287 278
232 233 235 236 237 236 240 239 239 240 242 242 241 243 244 246 246 247 249 249 250 251 251 248 249 251 247 248 239 237 230 236 232 235 229 225 234 251 265 292 293 285 274
235 239 242 243 242 242 241 241 241 242 243 245 247 249 248 247 249 250 251 251 252 252 252 250 250 252 250 251 240 237 238 248 219 216 219 228 247 223 246 271 283 277 269
235 238 243 246 246 245 246 246 247 248 251 251 251 253 253 253 252 255 254 253 252 253 253 251 248 247 245 242 235 235 237 238 234 228 215 227 227 235 236 240 263 268 264
240 241 241 243 249 249 250 250 253 255 254 254 254 255 255 254 254 255 256 255 255 253 252 251 248 246 245 241 239 239 237 239 240 233 238 231 227 227 228 242 251 260 261